"Pseudo-MPEC" for LA0Cr6l

Created 2026 Aug 21 17:35:07 UT using Find_Orb

Click here for an explanation of pseudo-MPECs

 
 Astrometry: 
     LA0Cr6l* C2026 08 14.47634817 30 54.230-06 09 24.01   ~8JFZ 19.7 GVNEOCPP07
     LA0Cr6l  C2026 08 14.50936917 40 29.054-08 08 36.92   ~8JFZ 19.6 GVNEOCPP07
     LA0Cr6l  C2026 08 14.57217618 16 49.243-15 13 30.47   ~8JFZ 17.6 GVNEOCPP07
     LA0Cr6l  C2026 08 14.61868819 38 44.362-27 46 44.94   ~8JFZ 16.2 GVNEOCPP07
     LA0Cr6l  C2026 08 14.62527520 01 51.593-30 25 14.95   ~8JFZ 15.9 GVNEOCPP07

Station data:
(P07) Space Surveillance Telescope, HEH Station  (S21.895685 E114.089870)
   Australia/WA.  Observers M. Blythe, R. Brungard, P. Festler, T. McVey, J.
   Paige, G. Spitz, L. Banks. Measurers M. Cornell, M. Kotson, R. Rios, J.
   Ruprecht, J. Vaillancourt, J. Varey, H. Viggh, D. Woods. 3.5-m f/1.0
   reflector + CCD.

Orbital elements:  LA0Cr6l
   Perigee 2026 Aug 14.663310 +/- 2.87e-5 TT = 15:55:10.0 (JD 2461267.163310)
Epoch 2026 Aug 15.0 TT = JDT 2461267.5                           AutoNEOCP
q 30941.21579 +/- 53.3              (J2000 equator)
H   33.33 G 0.15                    Peri.  276.662558 +/- 0.049
                                    Node    72.571868 +/- 0.0038
e   4.46253546 +/- 0.0193           Incl.   36.703696 +/- 0.0038
From 5 observations 2026 Aug. 14 (3.6 hr); mean residual 1".82
Residuals in arcseconds: 
260814 P07  .47+  .38-    260814 P07  2.6+  1.9-    260814 P07  1.5+  .56-    
260814 P07  1.3-  1.1+    260814 P07  3.7-  1.9+    

Ephemerides (geocentric):
Date (UTC) HH   RA             Dec           delta  r     elong  mag " sig PA
---- --------  ------------   ------------  ------ ------ -----  --- --------
2026 08 21 18  05 52 46.328   +11 17 59.82  .02759 0.9984  60.9 30.2  362  54
2026 08 21 19  05 52 47.401   +11 18 07.77  .02775 0.9984  60.9 30.2  362  54
2026 08 21 20  05 52 48.471   +11 18 15.65  .02791 0.9983  60.9 30.2  362  54
2026 08 21 21  05 52 49.537   +11 18 23.47  .02807 0.9982  61.0 30.2  362  54
2026 08 21 22  05 52 50.599   +11 18 31.21  .02824 0.9981  61.0 30.2  362  54
2026 08 21 23  05 52 51.658   +11 18 38.89  .02840 0.9981  61.0 30.2  362  54
2026 08 22 00  05 52 52.713   +11 18 46.51  .02856 0.9980  61.1 30.3  362  54
2026 08 22 01  05 52 53.765   +11 18 54.06  .02872 0.9979  61.1 30.3  362  54
2026 08 22 02  05 52 54.814   +11 19 01.55  .02888 0.9979  61.2 30.3  362  54
2026 08 22 03  05 52 55.860   +11 19 08.98  .02904 0.9978  61.2 30.3  362  54
2026 08 22 04  05 52 56.903   +11 19 16.35  .02920 0.9977  61.2 30.3  362  54
2026 08 22 05  05 52 57.943   +11 19 23.66  .02936 0.9977  61.3 30.3  362  54
2026 08 22 06  05 52 58.981   +11 19 30.92  .02952 0.9976  61.3 30.3  362  54
2026 08 22 07  05 53 00.015   +11 19 38.11  .02968 0.9975  61.3 30.3  362  54
2026 08 22 08  05 53 01.047   +11 19 45.25  .02985 0.9975  61.4 30.3  362  54
2026 08 22 09  05 53 02.077   +11 19 52.34  .03001 0.9974  61.4 30.3  362  54
2026 08 22 10  05 53 03.104   +11 19 59.37  .03017 0.9973  61.4 30.3  362  54
2026 08 22 11  05 53 04.129   +11 20 06.35  .03033 0.9973  61.5 30.4  362  54
2026 08 22 12  05 53 05.152   +11 20 13.27  .03049 0.9972  61.5 30.4  362  54
2026 08 22 13  05 53 06.172   +11 20 20.15  .03065 0.9971  61.5 30.4  362  54
2026 08 22 14  05 53 07.191   +11 20 26.97  .03081 0.9971  61.6 30.4  362  54
2026 08 22 15  05 53 08.207   +11 20 33.75  .03097 0.9970  61.6 30.4  362  54
2026 08 22 16  05 53 09.222   +11 20 40.47  .03113 0.9970  61.6 30.4  362  54
2026 08 22 17  05 53 10.235   +11 20 47.15  .03129 0.9969  61.7 30.4  362  54
2026 08 22 18  05 53 11.246   +11 20 53.78  .03145 0.9968  61.7 30.4  362  54
2026 08 22 19  05 53 12.255   +11 21 00.36  .03162 0.9968  61.7 30.4  362  54
2026 08 22 20  05 53 13.263   +11 21 06.90  .03178 0.9967  61.8 30.4  362  54
2026 08 22 21  05 53 14.270   +11 21 13.39  .03194 0.9966  61.8 30.4  362  54
2026 08 22 22  05 53 15.275   +11 21 19.84  .03210 0.9966  61.8 30.4  362  55
2026 08 22 23  05 53 16.278   +11 21 26.24  .03226 0.9965  61.9 30.4  362  55
2026 08 23 00  05 53 17.280   +11 21 32.61  .03242 0.9964  61.9 30.5  362  55
2026 08 23 01  05 53 18.281   +11 21 38.93  .03258 0.9964  61.9 30.5  362  55
2026 08 23 02  05 53 19.281   +11 21 45.20  .03274 0.9963  62.0 30.5  362  55
2026 08 23 03  05 53 20.280   +11 21 51.44  .03290 0.9963  62.0 30.5  362  55
2026 08 23 04  05 53 21.277   +11 21 57.64  .03306 0.9962  62.1 30.5  362  55
2026 08 23 05  05 53 22.274   +11 22 03.79  .03322 0.9961  62.1 30.5  362  55
2026 08 23 06  05 53 23.269   +11 22 09.91  .03338 0.9961  62.1 30.5  362  55
2026 08 23 07  05 53 24.264   +11 22 15.99  .03355 0.9960  62.2 30.5  362  55
2026 08 23 08  05 53 25.258   +11 22 22.03  .03371 0.9959  62.2 30.5  362  55
2026 08 23 09  05 53 26.251   +11 22 28.03  .03387 0.9959  62.2 30.5  362  55
2026 08 23 10  05 53 27.243   +11 22 34.00  .03403 0.9958  62.3 30.5  362  55
2026 08 23 11  05 53 28.235   +11 22 39.93  .03419 0.9958  62.3 30.5  362  55
2026 08 23 12  05 53 29.226   +11 22 45.82  .03435 0.9957  62.3 30.5  362  55
2026 08 23 13  05 53 30.217   +11 22 51.68  .03451 0.9956  62.4 30.6  362  55
2026 08 23 14  05 53 31.207   +11 22 57.51  .03467 0.9956  62.4 30.6  362  55
2026 08 23 15  05 53 32.196   +11 23 03.30  .03483 0.9955  62.4 30.6  362  55
2026 08 23 16  05 53 33.185   +11 23 09.05  .03499 0.9955  62.5 30.6  362  55
2026 08 23 17  05 53 34.174   +11 23 14.78  .03515 0.9954  62.5 30.6  363  55